Погода в Молочково-Дубенце

Россия / Псковская область     57°50′59″N   27°55′58″E
темп.,
°C
ветер,
м/с
пор.,
м/с
влажн.,
%
обл.,
%
осадки,
мм/ч
давл.,
гПа
погр.,
м
7 мая, пт
пт700:00+5юз61286100 0.1 9991019
03:00+4ююз61285100 0.1 10001054
06:00+3ююз61396100 0.0 1000750
09:00+4юз61190100 0.1 1002830
12:00+9зюз686587 0.1 10031366
15:00+10юз5661100 0.5 10041519
18:00+9юз3562100 0.3 10041183
21:00+6з1181100 0.6 100410
8 мая, сб
сб800:00+6юв1182100 0.0 100310
03:00+5ююз1190100 0.6 100229
06:00+4сз4791100 0.1 1002412
09:00+2зсз51096100 0.4 1004468
12:00+7сз5663100 0.0 10041413
15:00+6сз4767100 0.1 10061075
18:00+7сз596058 0.3 10071402
21:00+4сз387890 0.3 1010251
9 мая, вс
вс900:00+3зсз513745 0.0 1012506
03:00+2з513790 0.0 1014373
06:00+1з411835 0.0 1016278
09:00+7зюз4753100 0.0 1017631
12:00+11юз5744100 0.0 10181448
15:00+13юз5841100 0.0 10182357
18:00+13юз5747100 0.0 10181701
21:00+9ююз4958100 0.0 1019357
10 мая, пн
пн1000:00+8ю51476100 0.2 1019701
03:00+9ююз61472100 0.3 1019639
06:00+10ююз51374100 0.0 1020436
09:00+13ююз6136923 0.0 1021509
12:00+18ююз7105097 0.0 10211107
15:00+20ююз61049100 0.0 10211435
18:00+19ююз7115546 0.0 10211217
21:00+15ю61368100 0.0 1022635
11 мая, вт
вт1100:00+13ю6157255 0.0 1022601
03:00+11ю515809 0.0 1022466
06:00+10ю514806 0.0 1022456
09:00+14ю6136657 0.0 1023674
12:00+19ю710505 0.0 10231104
15:00+21ю710450 0.0 10221329
18:00+20ю611530 0.0 10211131
21:00+15ю412690 0.0 1022358